Precipitable_Water
1.28 1.29 1.36 1.37 1.41 1.45 1.48 1.49 1.53 1.55 1.59 1.58 1.60 1.56 1.54 1.54 1.52 1.48 1.45 1.39 1.34 1.31 1.29 1.26 1.27 1.28 1.24 1.17 1.15 1.17 1.20 1.21 1.23 1.24 1.25 1.29 1.32 1.36 1.38 1.42 1.46 1.51 1.57 1.62 1.67 1.69 1.73 1.76 1.77 1.80 1.83 1.85 1.87 1.88 1.88 1.87 1.85 1.85 1.85 1.86 1.87 1.86 1.86 1.86 1.86 1.85 1.84 1.83 1.84 1.85 1.85 1.83 1.80 1.74 1.69 1.67 1.66 1.65 1.63 1.63 1.64 1.67 1.69 1.73 1.77
1.26 1.31 1.34 1.36 1.42 1.47 1.48 1.49 1.51 1.55 1.58 1.56 1.60 1.57 1.53 1.53 1.51 1.47 1.42 1.38 1.31 1.24 1.23 1.19 1.19 1.20 1.18 1.15 1.15 1.21 1.24 1.24 1.23 1.23 1.25 1.29 1.32 1.36 1.39 1.44 1.49 1.54 1.59 1.64 1.67 1.69 1.72 1.75 1.78 1.83 1.86 1.87 1.88 1.89 1.88 1.86 1.85 1.85 1.87 1.90 1.91 1.89 1.88 1.88 1.86 1.85 1.84 1.84 1.84 1.84 1.81 1.78 1.73 1.66 1.63 1.63 1.63 1.62 1.61 1.62 1.63 1.65 1.68 1.70 1.73
1.30 1.32 1.36 1.39 1.43 1.45 1.46 1.49 1.50 1.55 1.60 1.58 1.61 1.57 1.56 1.52 1.47 1.44 1.42 1.38 1.33 1.24 1.16 1.11 1.11 1.12 1.16 1.16 1.20 1.24 1.25 1.26 1.25 1.24 1.24 1.31 1.36 1.39 1.42 1.44 1.49 1.55 1.59 1.62 1.65 1.67 1.70 1.73 1.77 1.83 1.86 1.87 1.88 1.88 1.88 1.86 1.86 1.87 1.89 1.91 1.92 1.93 1.92 1.88 1.84 1.83 1.82 1.81 1.79 1.76 1.72 1.67 1.60 1.55 1.54 1.57 1.57 1.57 1.58 1.62 1.64 1.66 1.67 1.67 1.69
1.34 1.37 1.39 1.40 1.40 1.43 1.45 1.47 1.49 1.57 1.60 1.58 1.57 1.57 1.54 1.50 1.50 1.48 1.45 1.40 1.31 1.23 1.09 1.05 1.04 1.08 1.14 1.17 1.21 1.21 1.22 1.25 1.25 1.27 1.31 1.35 1.39 1.42 1.45 1.47 1.49 1.54 1.60 1.64 1.65 1.67 1.70 1.73 1.77 1.80 1.81 1.81 1.84 1.86 1.86 1.85 1.85 1.86 1.86 1.86 1.84 1.86 1.87 1.85 1.81 1.80 1.79 1.77 1.74 1.67 1.57 1.49 1.43 1.43 1.49 1.53 1.54 1.54 1.56 1.59 1.63 1.65 1.66 1.68 1.73
1.38 1.40 1.41 1.40 1.40 1.41 1.44 1.48 1.52 1.57 1.58 1.57 1.54 1.54 1.51 1.48 1.47 1.48 1.45 1.40 1.31 1.18 1.14 1.07 1.04 1.07 1.14 1.15 1.18 1.19 1.23 1.25 1.29 1.33 1.34 1.36 1.39 1.40 1.44 1.46 1.49 1.51 1.54 1.59 1.64 1.70 1.74 1.77 1.79 1.80 1.79 1.79 1.80 1.81 1.82 1.82 1.83 1.83 1.84 1.84 1.82 1.83 1.84 1.81 1.79 1.78 1.76 1.72 1.62 1.47 1.37 1.33 1.37 1.46 1.52 1.54 1.56 1.57 1.59 1.63 1.67 1.68 1.71 1.75 1.77
1.39 1.40 1.40 1.38 1.39 1.42 1.44 1.48 1.54 1.55 1.58 1.56 1.51 1.49 1.45 1.44 1.41 1.43 1.39 1.35 1.27 1.21 1.16 1.11 1.12 1.13 1.13 1.16 1.18 1.21 1.25 1.26 1.30 1.33 1.34 1.36 1.39 1.40 1.42 1.46 1.48 1.50 1.53 1.55 1.58 1.64 1.68 1.72 1.75 1.77 1.78 1.80 1.82 1.82 1.82 1.83 1.83 1.84 1.85 1.84 1.82 1.80 1.79 1.77 1.76 1.73 1.66 1.55 1.42 1.32 1.30 1.35 1.47 1.55 1.58 1.61 1.63 1.63 1.66 1.70 1.71 1.73 1.75 1.78 1.80
1.41 1.39 1.38 1.39 1.40 1.43 1.46 1.50 1.55 1.58 1.56 1.55 1.52 1.49 1.46 1.42 1.43 1.38 1.38 1.37 1.32 1.26 1.22 1.18 1.18 1.18 1.20 1.22 1.22 1.27 1.30 1.29 1.32 1.32 1.34 1.36 1.38 1.38 1.42 1.45 1.48 1.51 1.53 1.58 1.63 1.62 1.62 1.65 1.67 1.71 1.74 1.78 1.81 1.82 1.84 1.85 1.84 1.82 1.82 1.81 1.80 1.78 1.75 1.72 1.71 1.63 1.50 1.40 1.32 1.29 1.33 1.45 1.56 1.61 1.65 1.69 1.71 1.71 1.70 1.72 1.74 1.77 1.78 1.79 1.81
1.42 1.42 1.39 1.42 1.44 1.44 1.49 1.53 1.56 1.60 1.57 1.55 1.54 1.48 1.46 1.44 1.45 1.43 1.34 1.32 1.29 1.25 1.27 1.24 1.23 1.23 1.26 1.27 1.29 1.31 1.32 1.34 1.34 1.34 1.36 1.38 1.38 1.41 1.44 1.46 1.49 1.52 1.58 1.61 1.64 1.67 1.64 1.63 1.64 1.67 1.70 1.74 1.75 1.79 1.81 1.81 1.81 1.80 1.78 1.77 1.78 1.77 1.71 1.68 1.64 1.52 1.40 1.35 1.30 1.31 1.40 1.52 1.60 1.65 1.69 1.72 1.73 1.72 1.73 1.78 1.79 1.79 1.78 1.80 1.87
1.43 1.44 1.42 1.42 1.44 1.47 1.52 1.57 1.60 1.61 1.58 1.56 1.55 1.54 1.49 1.42 1.45 1.45 1.42 1.33 1.29 1.24 1.25 1.26 1.25 1.26 1.27 1.27 1.29 1.31 1.30 1.33 1.34 1.35 1.37 1.37 1.39 1.41 1.43 1.47 1.52 1.56 1.61 1.65 1.69 1.70 1.70 1.69 1.67 1.68 1.68 1.70 1.75 1.78 1.78 1.77 1.76 1.76 1.75 1.74 1.74 1.72 1.69 1.66 1.58 1.47 1.39 1.32 1.31 1.36 1.47 1.57 1.62 1.66 1.71 1.73 1.74 1.74 1.76 1.81 1.81 1.79 1.80 1.85 1.90
1.47 1.47 1.44 1.45 1.48 1.51 1.56 1.61 1.63 1.63 1.61 1.58 1.58 1.58 1.56 1.48 1.42 1.45 1.43 1.38 1.29 1.26 1.25 1.26 1.24 1.22 1.23 1.24 1.27 1.29 1.30 1.31 1.33 1.34 1.33 1.33 1.37 1.41 1.45 1.48 1.51 1.54 1.58 1.61 1.62 1.66 1.69 1.70 1.71 1.71 1.72 1.72 1.73 1.74 1.75 1.75 1.77 1.77 1.74 1.72 1.73 1.70 1.67 1.62 1.55 1.48 1.41 1.33 1.36 1.44 1.52 1.58 1.63 1.68 1.73 1.76 1.77 1.75 1.77 1.80 1.79 1.81 1.86 1.90 1.88
1.54 1.55 1.52 1.50 1.52 1.55 1.58 1.61 1.65 1.64 1.61 1.59 1.59 1.59 1.56 1.51 1.44 1.44 1.45 1.44 1.37 1.31 1.28 1.26 1.25 1.24 1.21 1.23 1.26 1.27 1.31 1.31 1.30 1.31 1.32 1.32 1.34 1.41 1.47 1.52 1.56 1.59 1.62 1.64 1.68 1.70 1.71 1.75 1.76 1.74 1.73 1.70 1.71 1.73 1.74 1.77 1.79 1.78 1.75 1.75 1.74 1.69 1.63 1.58 1.53 1.49 1.40 1.36 1.44 1.55 1.55 1.55 1.61 1.68 1.75 1.80 1.77 1.74 1.77 1.79 1.79 1.85 1.89 1.91 1.82
1.60 1.63 1.60 1.57 1.56 1.57 1.59 1.63 1.65 1.64 1.59 1.56 1.55 1.55 1.52 1.47 1.45 1.42 1.41 1.43 1.44 1.39 1.35 1.29 1.25 1.24 1.24 1.26 1.28 1.30 1.30 1.33 1.33 1.34 1.36 1.39 1.43 1.49 1.50 1.57 1.62 1.66 1.68 1.71 1.75 1.75 1.78 1.79 1.78 1.75 1.72 1.72 1.70 1.71 1.74 1.80 1.84 1.81 1.80 1.79 1.77 1.71 1.61 1.54 1.52 1.47 1.41 1.40 1.50 1.60 1.61 1.57 1.56 1.65 1.73 1.80 1.76 1.73 1.75 1.75 1.79 1.86 1.91 1.87 1.72
1.63 1.64 1.59 1.61 1.62 1.63 1.62 1.62 1.66 1.65 1.60 1.57 1.58 1.57 1.57 1.54 1.49 1.48 1.42 1.38 1.38 1.44 1.40 1.35 1.26 1.21 1.26 1.24 1.25 1.32 1.32 1.33 1.35 1.39 1.41 1.45 1.51 1.54 1.61 1.62 1.65 1.68 1.73 1.76 1.79 1.80 1.80 1.79 1.76 1.76 1.76 1.73 1.72 1.73 1.76 1.82 1.85 1.84 1.84 1.83 1.80 1.72 1.60 1.52 1.50 1.48 1.44 1.45 1.53 1.59 1.61 1.60 1.58 1.58 1.65 1.77 1.77 1.71 1.72 1.73 1.79 1.87 1.91 1.82 1.63
1.69 1.67 1.63 1.61 1.60 1.61 1.62 1.62 1.64 1.63 1.61 1.60 1.62 1.59 1.58 1.54 1.50 1.45 1.49 1.42 1.39 1.46 1.46 1.38 1.30 1.20 1.16 1.18 1.22 1.31 1.34 1.37 1.40 1.45 1.50 1.55 1.58 1.60 1.64 1.63 1.64 1.70 1.77 1.80 1.81 1.80 1.77 1.77 1.78 1.76 1.77 1.73 1.71 1.74 1.82 1.88 1.89 1.83 1.84 1.85 1.81 1.72 1.63 1.58 1.53 1.52 1.49 1.50 1.54 1.58 1.59 1.60 1.60 1.58 1.56 1.69 1.77 1.74 1.72 1.73 1.79 1.88 1.89 1.76 1.57
1.71 1.71 1.66 1.64 1.62 1.60 1.60 1.63 1.63 1.65 1.59 1.55 1.55 1.55 1.56 1.54 1.53 1.43 1.40 1.50 1.49 1.55 1.52 1.47 1.31 1.32 1.31 1.17 1.18 1.12 1.33 1.33 1.42 1.45 1.48 1.54 1.59 1.62 1.65 1.64 1.66 1.72 1.77 1.77 1.77 1.78 1.78 1.80 1.79 1.78 1.74 1.71 1.73 1.77 1.85 1.87 1.84 1.81 1.83 1.84 1.79 1.72 1.68 1.63 1.55 1.55 1.54 1.54 1.58 1.60 1.61 1.60 1.61 1.59 1.54 1.60 1.75 1.78 1.73 1.74 1.79 1.87 1.84 1.71 1.56
1.71 1.71 1.69 1.67 1.64 1.60 1.60 1.60 1.63 1.64 1.60 1.55 1.54 1.53 1.55 1.56 1.56 1.54 1.50 1.39 1.45 1.50 1.61 1.59 1.47 1.34 1.16 1.17 1.18 1.12 1.02 1.21 1.26 1.45 1.51 1.56 1.59 1.64 1.66 1.66 1.68 1.72 1.77 1.76 1.76 1.79 1.83 1.84 1.77 1.75 1.74 1.75 1.78 1.81 1.86 1.87 1.85 1.86 1.88 1.84 1.77 1.73 1.70 1.67 1.62 1.57 1.59 1.60 1.61 1.64 1.64 1.63 1.63 1.58 1.54 1.57 1.73 1.79 1.75 1.74 1.78 1.85 1.80 1.70 1.58
1.72 1.71 1.71 1.68 1.68 1.65 1.63 1.63 1.64 1.63 1.62 1.58 1.54 1.53 1.54 1.57 1.61 1.58 1.54 1.45 1.41 1.46 1.56 1.61 1.57 1.57 1.36 1.22 1.16 1.11 1.10 1.19 1.25 1.35 1.48 1.52 1.59 1.61 1.64 1.65 1.66 1.71 1.75 1.78 1.83 1.83 1.82 1.77 1.73 1.74 1.75 1.77 1.79 1.82 1.86 1.88 1.90 1.92 1.91 1.89 1.85 1.78 1.72 1.69 1.65 1.62 1.62 1.64 1.67 1.70 1.70 1.67 1.64 1.59 1.56 1.58 1.72 1.81 1.78 1.75 1.77 1.81 1.77 1.70 1.62
1.72 1.72 1.73 1.72 1.68 1.68 1.67 1.65 1.65 1.66 1.65 1.60 1.57 1.55 1.56 1.56 1.61 1.59 1.58 1.58 1.47 1.42 1.41 1.58 1.57 1.58 1.55 1.47 1.35 1.17 1.18 1.32 1.27 1.17 1.48 1.54 1.52 1.56 1.59 1.65 1.70 1.70 1.75 1.78 1.79 1.79 1.80 1.70 1.70 1.72 1.74 1.76 1.78 1.82 1.87 1.91 1.94 1.96 1.94 1.94 1.89 1.87 1.80 1.75 1.70 1.68 1.66 1.65 1.69 1.74 1.74 1.69 1.65 1.62 1.58 1.61 1.73 1.83 1.80 1.77 1.76 1.77 1.75 1.70 1.64
1.66 1.69 1.71 1.74 1.72 1.70 1.69 1.65 1.63 1.63 1.65 1.61 1.55 1.55 1.59 1.58 1.61 1.58 1.58 1.59 1.53 1.37 1.34 1.41 1.52 1.55 1.56 1.56 1.55 1.56 1.53 1.38 1.25 1.32 1.19 1.35 1.45 1.49 1.56 1.66 1.70 1.71 1.71 1.74 1.75 1.73 1.74 1.70 1.68 1.70 1.74 1.77 1.78 1.84 1.89 1.94 1.96 1.96 1.93 1.94 1.95 1.97 1.95 1.88 1.83 1.79 1.74 1.67 1.69 1.72 1.73 1.69 1.67 1.65 1.61 1.62 1.73 1.85 1.85 1.79 1.76 1.75 1.74 1.71 1.66
1.63 1.65 1.68 1.70 1.71 1.70 1.69 1.66 1.62 1.61 1.59 1.56 1.54 1.58 1.58 1.57 1.55 1.54 1.57 1.56 1.52 1.41 1.35 1.41 1.32 1.39 1.53 1.50 1.54 1.60 1.60 1.55 1.49 1.31 1.18 1.06 1.23 1.52 1.63 1.64 1.67 1.72 1.72 1.71 1.70 1.69 1.68 1.68 1.67 1.70 1.74 1.78 1.81 1.86 1.92 1.96 1.98 1.99 1.97 1.94 1.96 1.98 2.00 1.99 1.95 1.92 1.84 1.74 1.71 1.71 1.70 1.66 1.67 1.67 1.64 1.62 1.70 1.84 1.90 1.84 1.77 1.74 1.72 1.71 1.69
1.63 1.63 1.63 1.64 1.67 1.70 1.68 1.64 1.60 1.58 1.57 1.58 1.57 1.55 1.51 1.48 1.48 1.49 1.50 1.53 1.54 1.52 1.46 1.43 1.43 1.42 1.42 1.47 1.47 1.48 1.51 1.50 1.45 1.41 1.24 1.16 1.21 1.27 1.34 1.54 1.62 1.66 1.67 1.70 1.71 1.71 1.71 1.70 1.70 1.70 1.74 1.78 1.85 1.89 1.90 1.91 1.93 1.96 1.96 1.92 1.93 1.97 2.00 2.01 2.01 1.99 1.91 1.84 1.79 1.74 1.69 1.65 1.67 1.69 1.68 1.64 1.64 1.78 1.89 1.89 1.80 1.73 1.71 1.71 1.70
1.61 1.61 1.60 1.61 1.63 1.66 1.64 1.61 1.59 1.61 1.61 1.62 1.59 1.54 1.52 1.51 1.51 1.51 1.55 1.53 1.59 1.58 1.54 1.56 1.54 1.52 1.48 1.43 1.37 1.41 1.42 1.42 1.40 1.39 1.42 1.40 1.22 1.23 1.31 1.29 1.27 1.45 1.62 1.61 1.63 1.69 1.72 1.74 1.75 1.76 1.78 1.82 1.87 1.89 1.90 1.91 1.90 1.90 1.90 1.91 1.92 1.95 1.99 2.02 2.02 1.99 1.95 1.91 1.88 1.83 1.73 1.67 1.69 1.71 1.72 1.70 1.65 1.70 1.82 1.86 1.84 1.76 1.70 1.69 1.68
1.56 1.56 1.54 1.56 1.56 1.58 1.59 1.61 1.65 1.65 1.62 1.62 1.59 1.56 1.57 1.56 1.58 1.60 1.60 1.59 1.61 1.62 1.60 1.60 1.58 1.52 1.49 1.45 1.40 1.37 1.34 1.28 1.34 1.40 1.36 1.31 1.28 1.28 1.31 1.36 1.33 1.31 1.50 1.59 1.63 1.65 1.70 1.74 1.76 1.78 1.82 1.86 1.91 1.93 1.93 1.93 1.92 1.89 1.88 1.90 1.90 1.93 1.98 2.02 2.02 1.99 1.96 1.95 1.93 1.89 1.81 1.75 1.75 1.75 1.74 1.74 1.71 1.67 1.73 1.78 1.78 1.75 1.69 1.65 1.66
1.52 1.51 1.51 1.53 1.55 1.57 1.61 1.63 1.64 1.63 1.60 1.61 1.60 1.60 1.61 1.60 1.60 1.60 1.60 1.62 1.62 1.60 1.59 1.55 1.55 1.54 1.51 1.52 1.48 1.48 1.49 1.45 1.46 1.44 1.39 1.37 1.32 1.27 1.27 1.35 1.38 1.42 1.51 1.55 1.62 1.61 1.69 1.73 1.82 1.82 1.85 1.88 1.92 1.94 1.95 1.94 1.93 1.89 1.87 1.87 1.86 1.89 1.94 1.98 1.99 1.99 1.98 1.98 1.96 1.94 1.88 1.84 1.81 1.80 1.77 1.77 1.77 1.74 1.71 1.72 1.71 1.68 1.66 1.63 1.61
1.44 1.43 1.47 1.52 1.56 1.56 1.60 1.60 1.61 1.62 1.61 1.59 1.58 1.60 1.61 1.59 1.58 1.57 1.59 1.57 1.60 1.61 1.57 1.55 1.55 1.50 1.52 1.59 1.55 1.52 1.50 1.55 1.53 1.48 1.46 1.45 1.39 1.24 1.35 1.43 1.32 1.35 1.46 1.44 1.44 1.63 1.73 1.78 1.84 1.86 1.86 1.89 1.93 1.96 1.95 1.93 1.92 1.87 1.84 1.85 1.84 1.84 1.86 1.87 1.90 1.94 1.99 2.00 1.99 1.97 1.92 1.88 1.85 1.84 1.82 1.82 1.83 1.82 1.77 1.74 1.69 1.66 1.62 1.60 1.57
1.42 1.41 1.47 1.53 1.57 1.60 1.62 1.63 1.63 1.63 1.62 1.60 1.58 1.58 1.60 1.59 1.60 1.56 1.54 1.60 1.62 1.61 1.60 1.62 1.62 1.62 1.62 1.55 1.55 1.57 1.58 1.59 1.56 1.52 1.47 1.40 1.34 1.32 1.35 1.41 1.42 1.32 1.37 1.41 1.55 1.53 1.70 1.80 1.87 1.88 1.89 1.90 1.93 1.93 1.90 1.86 1.83 1.78 1.77 1.77 1.79 1.77 1.76 1.77 1.79 1.83 1.93 1.99 2.02 2.03 1.97 1.92 1.89 1.88 1.86 1.87 1.88 1.88 1.86 1.81 1.76 1.67 1.65 1.62 1.56
1.48 1.53 1.56 1.54 1.56 1.59 1.60 1.59 1.60 1.59 1.59 1.58 1.57 1.55 1.56 1.56 1.58 1.58 1.58 1.60 1.63 1.65 1.64 1.63 1.61 1.60 1.59 1.58 1.56 1.57 1.58 1.58 1.56 1.54 1.52 1.44 1.39 1.40 1.36 1.22 1.22 1.27 1.27 1.43 1.54 1.61 1.59 1.74 1.81 1.83 1.87 1.88 1.88 1.88 1.84 1.81 1.80 1.77 1.74 1.77 1.75 1.74 1.72 1.72 1.74 1.77 1.86 1.95 2.01 2.04 2.00 1.97 1.93 1.90 1.88 1.88 1.92 1.90 1.91 1.92 1.86 1.76 1.66 1.66 1.59
1.57 1.58 1.59 1.58 1.57 1.55 1.56 1.55 1.57 1.57 1.56 1.55 1.55 1.53 1.54 1.52 1.55 1.59 1.59 1.68 1.65 1.63 1.62 1.62 1.59 1.57 1.53 1.55 1.50 1.48 1.55 1.57 1.56 1.53 1.51 1.49 1.45 1.46 1.44 1.37 1.22 1.09 1.25 1.34 1.48 1.57 1.72 1.65 1.81 1.88 1.88 1.90 1.91 1.89 1.86 1.82 1.78 1.70 1.73 1.72 1.71 1.74 1.69 1.69 1.74 1.79 1.85 1.91 1.97 1.98 1.97 1.96 1.92 1.92 1.93 1.94 1.97 1.96 1.99 1.99 1.96 1.88 1.78 1.72 1.66
1.57 1.60 1.59 1.60 1.59 1.57 1.54 1.54 1.55 1.56 1.55 1.56 1.56 1.57 1.58 1.56 1.56 1.59 1.58 1.65 1.63 1.55 1.57 1.53 1.52 1.50 1.47 1.49 1.50 1.51 1.53 1.56 1.53 1.51 1.53 1.52 1.52 1.53 1.55 1.43 1.39 1.21 1.18 1.23 1.40 1.44 1.63 1.73 1.64 1.86 1.98 2.00 1.95 1.94 1.86 1.80 1.74 1.70 1.73 1.74 1.75 1.78 1.71 1.71 1.75 1.83 1.89 1.93 1.96 1.98 1.98 1.95 1.93 1.94 1.96 1.97 1.99 2.01 2.02 2.06 2.06 2.00 1.93 1.82 1.73
1.59 1.60 1.59 1.58 1.58 1.58 1.55 1.54 1.55 1.58 1.60 1.61 1.61 1.62 1.63 1.57 1.55 1.54 1.53 1.53 1.47 1.47 1.50 1.51 1.49 1.51 1.53 1.53 1.54 1.53 1.58 1.56 1.55 1.56 1.57 1.57 1.55 1.56 1.57 1.57 1.53 1.36 1.37 1.31 1.36 1.56 1.53 1.68 1.77 1.76 1.92 1.92 1.93 1.92 1.89 1.82 1.78 1.75 1.79 1.79 1.79 1.78 1.76 1.77 1.78 1.82 1.87 1.93 1.97 2.00 2.01 1.99 1.98 1.97 1.98 1.99 1.99 2.01 2.03 2.08 2.12 2.09 2.05 1.98 1.85
1.56 1.55 1.54 1.54 1.55 1.56 1.57 1.56 1.58 1.59 1.62 1.60 1.61 1.61 1.61 1.54 1.52 1.49 1.51 1.50 1.47 1.45 1.49 1.49 1.47 1.49 1.49 1.49 1.56 1.57 1.62 1.62 1.63 1.62 1.62 1.62 1.61 1.62 1.61 1.63 1.62 1.62 1.58 1.55 1.36 1.59 1.66 1.59 1.74 1.89 1.86 1.89 1.94 1.93 1.93 1.93 1.90 1.85 1.85 1.86 1.87 1.80 1.79 1.85 1.82 1.80 1.81 1.85 1.90 1.95 1.98 1.99 1.98 1.98 1.98 1.99 1.99 2.00 2.03 2.06 2.12 2.10 2.07 2.05 2.01
1.54 1.54 1.53 1.53 1.54 1.55 1.58 1.59 1.60 1.62 1.62 1.62 1.59 1.57 1.56 1.53 1.52 1.50 1.54 1.55 1.51 1.50 1.54 1.59 1.58 1.57 1.56 1.54 1.59 1.61 1.67 1.66 1.63 1.63 1.64 1.67 1.66 1.66 1.70 1.74 1.78 1.80 1.76 1.64 1.49 1.45 1.75 1.75 1.78 1.85 1.91 1.88 1.96 1.91 1.92 1.94 2.00 1.96 1.89 1.91 1.91 1.90 1.92 1.92 1.87 1.83 1.82 1.80 1.81 1.86 1.90 1.94 1.95 1.94 1.94 1.95 1.97 1.98 2.01 2.04 2.09 2.09 2.06 2.06 2.06
1.53 1.51 1.50 1.51 1.53 1.54 1.56 1.60 1.60 1.61 1.60 1.58 1.60 1.59 1.57 1.56 1.58 1.58 1.62 1.66 1.64 1.66 1.66 1.63 1.67 1.67 1.64 1.61 1.62 1.65 1.70 1.64 1.65 1.65 1.65 1.71 1.74 1.77 1.80 1.80 1.78 1.80 1.73 1.64 1.50 1.50 1.69 1.89 1.85 1.84 1.89 1.89 1.84 1.92 1.86 1.86 1.88 1.91 1.91 1.92 1.91 1.86 1.85 1.86 1.90 1.88 1.87 1.85 1.83 1.81 1.82 1.85 1.88 1.91 1.91 1.92 1.95 1.96 1.97 2.00 2.02 2.05 2.04 2.04 2.05
1.50 1.49 1.49 1.51 1.53 1.54 1.55 1.57 1.57 1.57 1.58 1.58 1.59 1.60 1.58 1.58 1.60 1.67 1.67 1.70 1.71 1.68 1.68 1.65 1.69 1.72 1.71 1.65 1.67 1.73 1.79 1.72 1.71 1.70 1.74 1.76 1.75 1.74 1.75 1.73 1.72 1.72 1.77 1.63 1.58 1.54 1.52 1.74 1.75 1.82 1.79 1.84 1.69 1.85 1.75 1.73 1.73 1.76 1.74 1.78 1.86 1.88 1.87 1.89 1.89 1.92 1.88 1.90 1.90 1.88 1.86 1.85 1.86 1.88 1.89 1.91 1.94 1.96 1.95 1.95 1.98 2.03 2.06 2.04 2.02
1.48 1.46 1.48 1.51 1.53 1.54 1.54 1.55 1.56 1.57 1.61 1.61 1.65 1.64 1.63 1.63 1.65 1.70 1.74 1.77 1.77 1.72 1.67 1.67 1.69 1.74 1.72 1.69 1.70 1.77 1.81 1.77 1.80 1.81 1.79 1.75 1.75 1.70 1.70 1.71 1.66 1.69 1.72 1.73 1.62 1.52 1.46 1.48 1.61 1.60 1.65 1.68 1.63 1.63 1.68 1.68 1.67 1.69 1.66 1.70 1.75 1.83 1.89 1.92 1.92 1.94 1.93 1.90 1.91 1.93 1.93 1.92 1.90 1.88 1.88 1.90 1.93 1.95 1.95 1.94 1.94 2.00 2.06 2.07 2.05
1.43 1.46 1.47 1.51 1.53 1.53 1.53 1.54 1.57 1.58 1.60 1.65 1.70 1.75 1.76 1.76 1.77 1.80 1.85 1.86 1.83 1.78 1.73 1.72 1.76 1.81 1.85 1.81 1.79 1.85 1.88 1.79 1.78 1.76 1.76 1.76 1.72 1.70 1.65 1.67 1.64 1.63 1.67 1.66 1.63 1.50 1.47 1.39 1.53 1.52 1.56 1.49 1.53 1.59 1.62 1.64 1.60 1.59 1.64 1.69 1.76 1.80 1.86 1.90 1.91 1.91 1.91 1.89 1.92 1.95 1.97 1.96 1.95 1.93 1.92 1.92 1.93 1.93 1.92 1.90 1.88 1.94 2.02 2.06 2.07
1.39 1.41 1.46 1.47 1.49 1.50 1.49 1.51 1.55 1.59 1.64 1.70 1.74 1.78 1.82 1.85 1.86 1.86 1.86 1.86 1.85 1.82 1.79 1.79 1.88 1.98 1.94 1.87 1.85 1.79 1.78 1.75 1.77 1.73 1.74 1.71 1.71 1.68 1.62 1.63 1.62 1.64 1.65 1.64 1.61 1.58 1.48 1.41 1.43 1.52 1.53 1.53 1.55 1.57 1.66 1.56 1.56 1.59 1.64 1.63 1.65 1.71 1.80 1.87 1.87 1.88 1.88 1.90 1.93 1.96 1.98 1.98 1.97 1.96 1.96 1.96 1.94 1.90 1.87 1.84 1.82 1.84 1.92 2.01 2.09
1.30 1.34 1.36 1.37 1.40 1.42 1.45 1.47 1.51 1.58 1.66 1.75 1.81 1.85 1.87 1.87 1.86 1.85 1.86 1.87 1.89 1.90 1.91 1.98 1.98 1.88 1.84 1.85 1.88 1.91 1.82 1.65 1.68 1.76 1.74 1.71 1.71 1.67 1.64 1.66 1.67 1.67 1.62 1.62 1.61 1.57 1.52 1.48 1.48 1.46 1.56 1.51 1.52 1.57 1.60 1.57 1.49 1.46 1.52 1.59 1.64 1.68 1.68 1.70 1.77 1.82 1.87 1.89 1.93 1.99 2.03 2.00 1.95 1.93 1.93 1.93 1.92 1.89 1.85 1.83 1.80 1.81 1.86 1.95 2.02
1.19 1.22 1.28 1.29 1.34 1.36 1.39 1.42 1.49 1.60 1.71 1.80 1.89 1.97 1.99 2.02 1.97 1.92 1.90 1.92 1.92 1.94 2.00 2.00 1.99 2.06 2.06 2.01 1.95 1.94 1.90 1.82 1.72 1.72 1.75 1.71 1.70 1.66 1.67 1.67 1.67 1.62 1.58 1.59 1.59 1.53 1.49 1.44 1.45 1.46 1.42 1.49 1.49 1.41 1.51 1.57 1.55 1.52 1.44 1.43 1.46 1.58 1.62 1.62 1.62 1.75 1.86 1.91 1.99 2.01 2.01 2.02 2.01 1.98 1.96 1.93 1.92 1.91 1.92 1.90 1.87 1.84 1.86 1.94 2.01
1.16 1.19 1.23 1.26 1.30 1.33 1.37 1.42 1.55 1.68 1.76 1.83 1.96 2.08 2.08 2.01 1.97 1.97 1.98 1.96 1.97 1.99 2.00 1.97 1.99 1.98 1.97 1.94 1.91 1.93 1.94 1.91 1.86 1.83 1.77 1.74 1.74 1.70 1.71 1.69 1.64 1.57 1.52 1.52 1.49 1.46 1.40 1.38 1.34 1.32 1.36 1.34 1.40 1.46 1.51 1.49 1.41 1.43 1.49 1.46 1.38 1.45 1.53 1.62 1.65 1.65 1.78 1.81 1.80 1.85 1.93 1.98 2.01 2.03 2.03 2.01 1.97 1.94 1.95 1.97 1.99 1.95 1.95 2.02 2.04
1.21 1.23 1.27 1.28 1.29 1.32 1.39 1.46 1.58 1.70 1.75 1.83 1.92 1.98 1.99 2.01 2.05 2.05 2.05 2.01 2.01 1.97 1.93 1.88 1.87 1.86 1.87 1.92 1.94 1.97 2.04 2.08 2.10 2.01 1.92 1.85 1.77 1.71 1.72 1.70 1.65 1.59 1.54 1.51 1.47 1.43 1.41 1.40 1.38 1.41 1.38 1.38 1.43 1.45 1.45 1.45 1.42 1.39 1.50 1.54 1.49 1.53 1.57 1.58 1.65 1.78 1.75 1.68 1.73 1.77 1.82 1.90 1.91 1.94 1.96 1.98 2.00 1.96 1.93 1.95 1.97 2.00 2.04 2.02 1.97
1.28 1.31 1.32 1.32 1.31 1.34 1.40 1.49 1.60 1.68 1.74 1.80 1.87 1.98 2.02 1.98 1.99 1.99 2.04 2.05 2.00 1.93 1.84 1.79 1.81 1.87 1.92 1.95 1.96 1.96 1.98 2.04 2.10 2.06 2.02 1.98 1.93 1.87 1.83 1.78 1.73 1.67 1.61 1.56 1.52 1.50 1.45 1.39 1.38 1.38 1.35 1.37 1.44 1.50 1.49 1.55 1.63 1.66 1.61 1.58 1.51 1.56 1.60 1.57 1.64 1.72 1.74 1.71 1.69 1.69 1.82 1.90 1.85 1.85 1.89 1.88 1.92 1.93 1.91 1.91 1.89 1.90 1.92 1.94 1.94
1.31 1.35 1.36 1.33 1.34 1.37 1.42 1.48 1.55 1.63 1.71 1.78 1.83 1.87 1.89 1.91 1.95 2.03 2.01 2.04 2.00 1.95 1.90 1.82 1.77 1.78 1.80 1.87 1.96 2.02 2.04 2.06 2.08 2.06 2.06 2.06 2.01 1.97 1.93 1.88 1.83 1.74 1.65 1.60 1.54 1.53 1.49 1.44 1.46 1.47 1.46 1.45 1.51 1.58 1.59 1.62 1.66 1.64 1.61 1.61 1.59 1.61 1.56 1.49 1.39 1.55 1.73 1.68 1.64 1.63 1.66 1.78 1.81 1.75 1.81 1.79 1.82 1.83 1.85 1.84 1.84 1.85 1.86 1.88 1.90
1.33 1.36 1.36 1.36 1.38 1.39 1.44 1.48 1.54 1.63 1.68 1.71 1.78 1.86 1.90 1.96 2.01 2.02 2.04 1.96 1.95 2.01 1.99 1.88 1.81 1.77 1.75 1.82 1.92 1.98 2.01 2.04 2.07 2.08 2.07 2.07 2.04 2.00 1.97 1.91 1.82 1.74 1.73 1.68 1.60 1.54 1.52 1.48 1.49 1.51 1.51 1.51 1.56 1.60 1.61 1.63 1.62 1.63 1.64 1.64 1.62 1.59 1.53 1.45 1.39 1.31 1.52 1.65 1.55 1.50 1.47 1.63 1.72 1.67 1.61 1.63 1.68 1.71 1.73 1.75 1.78 1.80 1.81 1.82 1.84
1.37 1.34 1.36 1.38 1.39 1.45 1.48 1.50 1.54 1.60 1.61 1.67 1.70 1.77 1.81 1.80 1.87 1.98 1.98 1.97 1.98 2.04 1.98 1.86 1.81 1.76 1.73 1.73 1.74 1.81 1.88 1.92 1.94 1.99 2.03 2.04 1.97 1.98 1.93 1.85 1.78 1.76 1.78 1.81 1.81 1.73 1.67 1.57 1.52 1.51 1.54 1.57 1.54 1.56 1.62 1.63 1.71 1.59 1.60 1.58 1.58 1.57 1.49 1.39 1.34 1.32 1.40 1.53 1.47 1.37 1.29 1.41 1.50 1.45 1.39 1.49 1.54 1.57 1.60 1.63 1.66 1.70 1.71 1.74 1.75
1.41 1.36 1.38 1.39 1.45 1.50 1.54 1.54 1.52 1.54 1.57 1.61 1.66 1.72 1.77 1.79 1.85 1.95 1.98 1.93 1.94 1.92 1.83 1.77 1.72 1.70 1.71 1.70 1.66 1.66 1.73 1.79 1.89 1.95 2.01 2.00 1.98 1.97 1.93 1.90 1.84 1.84 1.86 1.87 1.83 1.78 1.72 1.65 1.62 1.56 1.65 1.66 1.57 1.58 1.60 1.65 1.59 1.51 1.48 1.46 1.51 1.48 1.46 1.35 1.35 1.33 1.38 1.48 1.34 1.30 1.22 1.27 1.37 1.37 1.30 1.34 1.39 1.42 1.49 1.53 1.56 1.59 1.61 1.64 1.65
1.47 1.39 1.38 1.42 1.51 1.56 1.57 1.56 1.53 1.51 1.54 1.58 1.62 1.67 1.72 1.76 1.79 1.79 1.78 1.78 1.75 1.74 1.75 1.75 1.74 1.73 1.72 1.70 1.67 1.64 1.64 1.67 1.79 1.88 1.86 1.84 1.83 1.81 1.86 1.86 1.88 1.89 1.84 1.77 1.71 1.69 1.68 1.69 1.68 1.70 1.70 1.71 1.66 1.63 1.61 1.63 1.58 1.54 1.50 1.44 1.44 1.45 1.46 1.51 1.35 1.28 1.28 1.38 1.37 1.28 1.09 1.22 1.31 1.30 1.31 1.31 1.33 1.33 1.39 1.41 1.43 1.48 1.51 1.53 1.55
1.57 1.51 1.49 1.52 1.53 1.54 1.56 1.56 1.53 1.51 1.53 1.57 1.60 1.64 1.67 1.69 1.70 1.71 1.72 1.71 1.68 1.67 1.67 1.70 1.72 1.72 1.71 1.70 1.70 1.71 1.70 1.70 1.69 1.67 1.66 1.67 1.70 1.78 1.84 1.85 1.79 1.77 1.72 1.72 1.70 1.69 1.70 1.72 1.74 1.71 1.69 1.67 1.65 1.59 1.54 1.52 1.52 1.51 1.50 1.47 1.44 1.38 1.27 1.18 1.12 1.16 1.14 1.26 1.34 1.27 1.13 1.15 1.26 1.20 1.26 1.33 1.31 1.26 1.31 1.36 1.40 1.41 1.42 1.45 1.49
1.50 1.47 1.45 1.49 1.54 1.55 1.57 1.57 1.54 1.53 1.55 1.58 1.60 1.61 1.63 1.66 1.67 1.70 1.72 1.71 1.68 1.66 1.70 1.74 1.75 1.74 1.77 1.78 1.79 1.81 1.86 1.85 1.82 1.77 1.72 1.75 1.81 1.82 1.77 1.70 1.68 1.67 1.65 1.70 1.72 1.70 1.69 1.70 1.68 1.65 1.63 1.60 1.56 1.51 1.46 1.44 1.42 1.41 1.35 1.22 1.12 1.11 1.03 0.96 1.01 1.06 1.05 1.13 1.23 1.27 1.14 1.07 1.14 1.11 1.14 1.25 1.22 1.18 1.16 1.18 1.27 1.31 1.36 1.40 1.43
1.44 1.46 1.49 1.50 1.55 1.58 1.58 1.55 1.55 1.53 1.54 1.58 1.60 1.62 1.66 1.70 1.74 1.75 1.75 1.69 1.65 1.64 1.69 1.73 1.77 1.80 1.82 1.86 1.82 1.84 1.83 1.83 1.87 1.85 1.88 1.91 1.83 1.81 1.74 1.68 1.65 1.63 1.66 1.69 1.68 1.66 1.66 1.60 1.54 1.51 1.51 1.49 1.48 1.43 1.36 1.30 1.25 1.20 1.07 0.94 1.00 1.00 0.91 0.90 0.83 0.90 0.95 0.92 0.90 1.02 0.92 0.84 0.94 0.91 0.88 1.00 1.06 1.01 1.01 1.05 1.09 1.15 1.21 1.31 1.34
1.53 1.48 1.48 1.48 1.51 1.55 1.58 1.55 1.55 1.54 1.53 1.55 1.61 1.66 1.72 1.76 1.81 1.82 1.77 1.72 1.66 1.66 1.69 1.72 1.75 1.76 1.80 1.82 1.83 1.82 1.81 1.83 1.84 1.87 1.88 1.84 1.76 1.72 1.68 1.64 1.60 1.58 1.58 1.58 1.52 1.48 1.46 1.44 1.43 1.43 1.38 1.33 1.30 1.28 1.26 1.25 1.23 1.20 1.15 1.08 1.06 0.95 0.84 0.79 0.74 0.69 0.64 0.65 0.73 0.86 0.73 0.70 0.72 0.76 0.75 0.69 0.67 0.81 0.91 0.92 0.93 0.93 1.01 1.08 1.12
Wind_Speed
12 12 12 11 11 10 10 10 10 10 9 9 9 10 10 10 9 9 8 8 8 8 8 8 8 7 7 7 7 7 6 6 6 6 5 5 5 5 5 5 5 5 5 5 6 6 6 7 7 8 8 8 9 9 9 9 9 10 10 10 11 11 11 12 12 12 12 13 13 14 14 15 15 15 15 15 16 16 17 17 17 18 18 19 19
12 12 11 11 11 10 10 10 10 9 9 9 9 9 9 9 9 8 8 8 8 8 8 8 8 8 8 7 7 7 6 6 5 5 5 5 5 5 5 4 5 5 6 6 6 7 7 8 8 8 9 9 10 10 10 10 10 10 10 11 11 11 12 12 12 12 13 13 14 14 15 15 15 16 16 16 16 17 17 17 18 18 19 19 20
12 12 11 11 11 10 10 10 9 9 9 9 9 9 9 9 8 8 8 8 8 8 8 9 8 8 8 7 7 6 5 5 5 4 4 4 4 5 5 5 5 6 6 6 7 7 8 8 9 9 9 10 10 10 10 10 10 10 11 11 11 12 12 13 13 13 13 14 14 15 15 15 16 15 15 16 16 17 17 18 18 19 19 20 20
12 11 11 11 10 10 10 9 9 9 9 9 8 8 8 8 8 8 7 7 7 8 8 9 8 8 8 7 6 5 5 4 4 4 4 4 4 5 5 5 6 6 7 7 8 8 9 9 9 10 10 10 10 10 10 10 10 11 11 12 12 12 13 13 13 13 13 14 14 15 15 15 15 15 15 16 17 17 17 18 18 19 19 19 19
12 11 11 11 10 10 10 9 9 9 9 8 8 8 8 8 7 7 7 7 7 8 8 8 8 8 7 6 5 4 4 3 3 3 3 3 4 5 5 6 7 7 7 8 9 9 10 10 10 10 11 11 11 11 11 11 11 11 12 12 12 12 13 13 13 13 13 14 14 15 15 15 15 15 16 17 17 17 17 17 18 18 18 18 18
12 11 11 11 10 10 10 9 9 9 8 8 8 8 8 7 7 7 7 7 7 8 8 7 7 7 6 5 4 4 3 2 2 3 3 4 5 5 6 7 8 8 8 9 9 10 10 10 10 11 11 11 11 11 11 11 11 11 12 12 12 12 12 12 13 13 13 14 14 15 15 15 15 16 16 17 17 17 16 17 17 17 17 17 18
12 11 11 11 10 10 9 9 9 8 8 8 8 8 7 7 7 6 6 6 7 7 7 7 6 5 5 4 3 2 2 1 2 3 4 5 5 6 7 8 8 8 9 9 10 10 10 10 10 11 11 11 11 11 12 12 11 11 11 11 11 12 12 12 12 13 13 14 14 15 15 15 15 16 16 17 16 16 16 16 16 17 17 18 18
11 11 10 10 10 9 9 8 8 8 8 8 8 8 7 7 6 6 6 6 6 7 7 6 5 4 4 3 2 1 1 1 3 4 5 6 6 7 7 8 9 9 9 10 10 10 10 10 11 11 11 11 11 11 11 11 11 11 11 11 11 11 12 12 12 13 13 14 15 15 15 15 15 16 17 17 16 15 15 16 16 17 17 18 19
11 11 10 10 9 9 8 8 8 7 8 8 7 7 7 6 6 6 5 5 5 6 6 5 4 3 2 2 1 1 1 3 4 5 6 6 7 7 8 9 9 9 10 10 10 10 10 10 10 10 10 10 10 11 11 11 11 10 10 10 10 11 11 11 12 13 13 14 15 15 15 15 16 17 17 16 16 15 15 16 16 17 18 19 19
11 10 10 9 9 8 8 7 7 7 7 7 7 7 7 6 6 5 5 4 5 5 5 4 3 2 2 1 1 2 3 4 5 5 6 6 7 8 8 9 9 9 9 10 10 10 10 10 10 10 10 10 10 11 11 11 10 10 9 10 10 10 11 12 12 13 14 15 15 15 15 15 16 17 17 16 16 16 16 16 17 17 18 19 20
10 10 9 9 8 8 7 7 7 6 6 6 6 6 6 6 6 5 5 4 4 4 3 3 2 2 1 1 1 2 3 4 4 5 6 6 7 8 8 9 9 9 9 10 10 10 9 9 10 10 10 10 10 10 11 10 10 10 9 9 10 10 11 12 12 13 14 15 15 15 15 16 17 18 17 16 16 16 16 16 17 18 18 19 20
10 9 9 8 8 7 7 7 6 6 6 6 6 6 6 6 5 5 4 4 3 3 2 2 2 1 1 1 1 2 3 3 4 5 5 6 7 7 8 8 9 9 9 9 10 9 9 9 9 10 10 10 10 10 10 10 10 10 9 10 10 10 11 12 13 13 14 15 15 15 16 17 17 18 18 17 17 16 16 16 17 17 18 20 21
9 9 8 8 8 7 7 6 6 6 6 5 5 5 5 5 5 5 4 4 3 2 2 2 1 1 1 1 2 2 3 4 4 5 5 6 7 7 8 8 8 9 9 9 9 9 9 9 10 10 10 10 10 10 10 10 10 10 10 10 10 11 11 12 13 13 14 14 15 15 16 17 18 18 18 18 17 16 16 16 17 18 19 20 21
8 8 8 8 7 7 7 6 6 6 5 5 4 4 4 4 4 4 4 3 3 2 2 1 1 1 1 1 2 2 3 4 4 5 5 6 6 7 7 7 8 8 9 9 9 9 9 10 10 10 10 10 9 9 9 10 10 10 10 10 10 11 11 12 13 14 14 14 15 15 16 17 18 18 18 18 17 16 16 16 17 18 19 20 21
8 8 8 8 7 7 7 6 6 5 5 5 4 4 4 3 3 3 3 3 2 2 1 1 0 0 1 1 2 3 3 3 4 5 5 6 6 6 7 7 8 8 9 9 9 9 10 10 10 10 10 9 9 9 9 9 10 10 10 10 11 11 12 12 13 14 14 14 15 15 16 17 18 18 19 18 17 16 16 16 17 18 19 20 21
8 8 8 8 8 7 7 7 6 5 5 4 4 4 3 3 3 3 2 2 2 1 1 1 1 1 1 1 2 3 3 3 5 5 5 6 6 6 7 7 8 8 9 9 9 9 10 10 10 10 9 9 8 8 8 9 10 10 10 10 11 12 12 12 13 13 14 14 15 15 16 17 18 18 18 18 17 16 16 16 17 18 19 20 20
8 8 8 8 8 7 7 7 6 6 5 4 4 4 3 3 3 2 2 2 1 1 1 0 1 1 1 2 2 3 3 4 5 5 5 6 6 6 7 7 8 8 8 8 9 9 10 10 10 9 9 8 8 8 9 9 10 11 11 11 12 12 12 12 13 13 14 14 15 15 16 17 18 18 18 18 17 17 16 16 17 18 19 19 20
8 8 8 8 7 7 7 7 6 6 5 5 4 4 4 3 3 3 2 2 2 1 1 1 1 1 2 2 2 3 4 5 5 5 6 6 6 6 7 7 8 8 8 8 9 9 10 10 10 9 9 8 8 8 9 9 10 11 11 11 12 12 12 12 12 13 14 14 15 15 15 16 17 18 18 18 17 17 16 16 16 17 18 19 20
9 8 8 8 7 7 7 6 6 6 5 5 4 4 4 4 3 3 3 2 2 2 1 1 1 2 2 2 3 3 4 4 5 5 5 5 6 6 7 8 8 8 8 9 9 9 9 9 9 9 9 8 8 9 9 10 11 11 11 12 12 13 12 12 12 13 13 14 14 15 15 16 17 18 18 18 17 17 16 16 16 17 18 19 19
9 9 8 8 7 7 7 6 6 6 6 5 5 4 4 4 4 3 3 3 3 2 2 2 2 2 3 3 3 3 4 4 4 5 5 6 6 6 7 8 8 8 8 9 9 9 9 9 9 9 9 9 9 9 10 10 11 12 12 12 13 13 13 13 13 13 13 14 14 15 15 16 16 17 18 18 17 16 15 15 16 16 17 18 19
9 9 9 8 8 7 7 6 6 6 5 5 5 4 4 4 4 3 3 3 3 3 2 2 3 3 3 3 3 4 4 4 4 4 5 6 6 7 8 8 8 8 9 9 10 10 9 9 9 9 9 9 9 10 10 11 12 12 12 13 13 14 14 13 13 13 13 13 14 14 15 16 16 17 17 18 17 16 15 15 15 16 16 17 18
9 9 9 9 8 8 7 7 6 6 6 5 5 5 4 4 4 3 3 3 3 3 3 3 3 3 3 3 3 4 4 4 4 5 5 5 6 7 8 8 8 8 9 10 10 10 9 9 9 9 9 9 9 10 11 11 12 13 13 13 14 14 14 14 13 13 13 13 14 14 15 15 16 16 17 17 17 16 14 14 15 15 16 16 17
9 9 9 9 9 8 8 7 7 6 6 6 5 5 5 4 4 3 3 3 3 3 3 3 3 3 3 3 4 4 4 4 5 5 6 6 6 7 8 8 8 8 9 10 10 10 9 9 9 9 9 9 10 10 11 12 12 13 14 14 14 14 14 14 14 13 13 14 14 14 14 15 16 16 17 17 17 16 14 14 14 14 15 16 16
10 9 9 9 9 9 8 7 7 7 6 6 6 5 5 5 4 4 4 4 3 3 3 3 3 3 4 4 4 4 4 5 5 5 6 6 7 7 8 8 8 8 9 10 10 9 8 8 8 8 9 10 10 11 12 12 13 14 14 14 14 14 14 14 14 14 13 13 13 14 14 15 15 16 16 17 17 16 14 13 14 14 14 15 15
10 10 10 9 9 9 8 8 7 7 7 6 6 6 6 5 5 5 5 4 4 4 4 4 4 4 4 4 5 5 5 5 5 6 6 6 7 7 7 8 8 8 9 9 9 9 8 8 8 8 9 10 11 12 12 13 13 14 15 15 14 15 15 15 14 14 13 13 13 13 14 14 15 15 16 17 17 16 14 13 13 13 13 14 14
11 10 10 10 9 9 9 8 8 7 7 7 6 6 6 6 6 6 5 5 5 5 5 5 5 5 5 5 5 5 5 5 5 6 6 6 7 7 8 8 8 8 8 9 9 8 8 8 8 8 9 10 11 12 13 13 13 15 15 15 15 15 15 15 15 14 13 13 13 13 14 14 15 15 16 16 17 16 14 13 12 13 13 13 13
10 10 10 10 10 9 9 8 8 8 8 7 7 7 7 7 7 6 6 6 6 6 6 6 6 6 6 6 6 6 6 6 6 6 6 7 7 7 8 8 8 8 8 8 8 8 8 8 8 9 10 11 12 12 13 13 14 15 15 15 15 15 15 16 15 14 13 12 12 13 13 14 15 15 15 16 16 16 14 13 12 12 12 12 12
10 10 10 10 10 10 9 9 9 8 8 8 8 7 7 7 7 7 7 6 6 7 6 6 6 6 6 6 6 6 6 6 6 6 6 7 7 7 8 8 8 8 8 8 8 8 8 9 9 9 11 12 12 13 13 13 14 15 15 15 15 15 16 16 15 14 13 12 12 12 13 14 14 15 15 16 16 16 15 13 12 12 12 11 11
10 10 10 10 10 10 10 10 9 9 9 8 8 8 7 7 7 7 7 7 7 7 7 7 7 7 7 6 6 6 6 6 7 7 7 7 7 7 7 8 8 8 8 8 8 9 9 9 10 10 11 12 13 13 13 13 14 15 15 15 15 15 15 15 15 14 13 12 12 12 13 14 14 14 15 15 16 16 15 13 12 12 11 11 11
11 10 10 10 10 10 10 10 10 9 9 8 8 8 7 8 8 8 8 7 7 7 7 7 7 7 7 7 6 7 7 7 7 7 7 7 7 7 8 8 8 8 8 8 9 9 10 10 10 11 11 12 13 13 13 13 14 15 15 15 15 15 15 15 14 14 13 13 13 13 13 13 14 14 14 15 15 15 15 14 13 12 11 11 10
11 11 11 11 10 10 10 10 10 9 9 9 9 8 8 8 8 8 8 8 8 8 8 7 7 7 7 7 7 7 7 7 7 7 7 7 8 8 8 8 8 8 9 9 9 10 11 11 11 11 12 13 13 13 14 14 14 15 15 15 15 15 15 14 14 14 13 13 13 13 14 14 14 14 14 15 15 15 15 14 13 12 12 11 10
12 11 11 11 11 10 10 10 10 9 9 9 9 9 9 8 8 8 8 8 8 8 8 8 8 8 8 8 8 8 7 7 7 8 8 8 8 8 8 9 9 9 9 10 11 11 12 12 12 12 13 13 14 14 15 15 15 16 16 15 15 16 15 15 14 14 14 14 14 14 14 14 15 15 15 15 15 15 15 14 13 13 12 12 11
12 12 12 11 11 11 10 10 10 10 10 10 10 10 9 9 9 9 9 9 9 9 9 9 9 9 9 8 9 8 8 8 8 9 9 8 9 9 9 9 9 10 10 11 11 12 12 12 12 13 13 14 15 15 15 16 16 16 16 16 16 16 16 15 15 14 14 15 15 15 15 15 15 15 15 15 15 14 15 14 14 13 13 12 12
13 13 12 12 11 11 11 11 11 11 11 10 10 10 10 10 10 10 9 10 10 10 10 10 10 10 9 9 9 9 9 9 9 9 9 9 9 10 10 10 10 10 10 11 12 12 13 13 13 14 14 15 16 16 16 17 17 17 17 17 17 16 16 16 16 15 16 16 16 16 16 15 15 16 16 16 15 15 15 15 14 14 13 13 12
14 14 13 13 12 12 12 12 11 11 11 11 11 11 11 11 11 11 11 11 11 11 11 11 11 11 10 10 10 10 10 10 10 10 10 10 10 10 10 10 10 11 11 11 12 13 13 13 14 15 15 16 16 17 17 17 18 18 18 18 18 17 17 17 17 16 17 17 17 17 17 16 16 16 16 16 16 15 15 15 15 15 14 13 13
15 14 14 14 13 13 13 13 12 12 12 12 11 11 11 11 12 12 12 12 12 12 12 12 12 12 11 11 11 11 11 11 11 11 11 11 11 11 10 10 11 11 11 12 12 13 14 14 15 15 16 16 17 17 18 17 17 18 18 18 18 18 18 18 17 17 18 18 18 17 17 17 16 16 16 16 16 16 16 16 15 15 15 14 13
16 15 15 15 15 14 14 14 13 13 13 13 12 12 12 12 12 13 13 13 13 13 13 13 12 12 12 12 12 12 12 12 12 11 11 11 11 11 11 11 11 12 12 12 13 13 14 15 15 16 16 17 17 17 17 17 18 18 18 18 18 18 18 18 18 18 18 18 17 17 17 17 17 17 17 16 16 17 17 16 16 16 15 15 14
18 17 16 16 16 15 15 15 15 14 14 14 13 13 13 13 13 13 13 13 13 13 13 13 13 13 13 13 13 13 13 12 12 12 12 12 12 12 12 12 12 12 13 13 14 14 15 16 16 16 17 17 17 17 17 18 18 18 18 19 18 18 18 18 18 17 17 17 17 17 17 17 17 17 17 17 17 17 17 17 17 17 16 16 16
19 18 18 17 17 16 16 16 16 16 15 15 15 15 14 14 14 14 14 14 14 13 13 13 14 14 14 14 14 13 13 13 13 13 13 12 12 12 12 13 13 13 13 14 14 15 16 16 17 17 17 17 17 17 18 18 18 18 18 19 18 18 17 17 17 17 17 17 17 17 17 17 17 17 17 18 18 18 18 18 18 17 17 17 16
20 19 19 18 18 18 17 17 17 17 16 16 16 16 15 14 14 14 14 14 14 14 14 14 15 15 15 15 15 14 14 14 14 13 13 13 13 13 13 13 13 14 14 15 15 15 16 16 17 17 17 17 17 17 18 18 18 18 18 18 18 18 18 17 16 16 17 17 17 17 17 17 17 17 17 17 18 18 18 18 18 18 18 17 17
20 20 20 19 19 19 18 18 18 17 17 17 17 16 15 15 15 15 15 14 14 14 14 15 15 15 15 15 15 15 15 15 15 14 14 14 14 14 14 14 14 14 15 15 15 16 16 16 16 17 17 16 17 17 17 17 17 17 17 17 17 17 17 17 16 16 17 17 17 17 17 17 17 17 17 17 18 18 18 19 19 19 19 18 19
21 21 21 20 20 20 19 19 19 18 18 17 16 16 15 15 15 15 15 15 14 14 15 15 15 15 15 15 15 15 16 16 15 15 15 15 15 15 15 15 15 15 15 15 16 16 16 16 16 16 16 16 17 18 18 18 17 17 17 17 17 17 17 16 15 16 18 18 17 17 17 17 18 17 17 18 18 19 19 19 19 19 19 19 19
22 22 22 21 21 20 20 20 19 19 18 17 17 16 16 16 16 16 15 15 15 15 15 15 15 15 15 15 15 15 15 15 15 15 15 15 15 15 15 15 15 16 16 16 16 16 16 16 16 16 17 17 18 18 18 18 17 17 17 17 17 17 17 16 16 17 18 18 18 17 17 18 18 17 18 18 19 19 19 19 20 20 20 20 20
23 23 23 22 22 22 21 21 20 20 19 18 17 17 17 17 16 16 16 16 15 16 16 16 15 15 15 15 15 15 16 16 16 16 16 15 15 15 15 15 15 15 16 16 15 16 15 15 16 16 17 17 17 18 18 18 17 17 17 17 17 16 16 16 16 17 18 18 17 17 17 18 18 17 18 19 19 19 19 20 20 20 20 19 19
24 24 24 23 23 23 22 22 21 20 19 19 18 18 18 18 17 17 17 16 16 16 17 16 16 16 16 16 16 17 17 18 18 18 17 16 15 15 15 15 15 15 14 14 15 15 15 15 15 16 16 16 17 17 17 17 17 17 16 16 16 16 15 15 15 16 17 18 17 17 17 18 18 18 18 19 19 19 19 19 19 19 18 18 18
25 25 25 24 24 23 23 22 22 21 20 20 19 19 19 19 18 18 17 17 17 18 18 18 17 17 17 17 18 18 18 18 18 18 17 16 16 16 16 16 15 14 13 14 14 15 15 15 16 16 16 16 16 16 17 16 16 16 16 16 16 16 15 15 15 16 17 17 17 17 17 19 19 19 19 19 20 20 19 19 19 18 18 18 18
26 26 25 25 24 24 23 23 22 22 21 21 20 20 19 19 19 19 18 18 18 19 18 18 18 18 18 19 19 19 19 19 18 18 17 17 17 17 16 16 15 14 14 14 15 15 15 16 16 16 16 15 15 16 16 16 16 16 16 16 16 16 16 16 16 17 17 18 18 17 18 19 20 20 20 20 21 20 20 19 19 19 19 18 18
26 26 26 25 25 24 24 23 23 23 22 22 21 21 20 20 20 20 20 20 20 19 19 19 19 19 19 20 20 20 19 19 19 19 19 18 18 17 16 15 15 14 14 14 15 15 16 16 16 16 16 15 15 16 16 17 17 17 18 18 18 18 17 17 18 18 19 19 19 19 19 20 21 21 21 21 21 21 21 21 20 20 20 20 20
26 26 26 26 25 25 25 24 24 24 23 23 22 22 21 21 21 21 21 21 20 20 20 20 20 20 20 20 20 20 19 19 19 19 18 18 17 16 15 15 16 15 15 14 15 15 16 16 16 16 15 15 15 16 17 18 19 19 19 19 19 19 19 19 20 20 21 21 22 21 21 21 22 22 22 21 21 21 21 21 21 22 22 21 21
27 26 26 26 26 25 25 25 24 24 24 23 23 23 22 22 22 22 21 21 20 20 20 20 20 20 20 20 20 19 18 18 17 17 17 17 16 15 15 16 16 15 15 16 17 17 17 16 16 16 16 16 17 18 18 19 20 20 20 19 20 20 20 20 21 21 21 22 23 23 22 22 22 23 23 22 22 22 22 22 23 23 23 23 22
28 27 26 26 26 26 26 25 25 25 24 24 24 23 23 23 23 22 22 21 21 21 20 20 20 20 20 20 19 17 17 16 15 16 16 17 17 16 16 16 16 15 16 17 18 18 17 17 17 18 17 17 18 18 18 19 20 20 20 20 20 20 20 20 21 21 21 22 23 24 23 23 24 24 24 24 23 23 24 24 24 24 24 24 24
Wind_Direction
136 134 132 130 128 127 125 124 122 120 119 118 118 118 119 118 116 114 113 115 118 123 129 131 129 127 123 119 117 114 110 104 97 91 82 73 64 57 52 45 39 33 26 21 15 9 3 358 354 350 347 345 342 341 341 340 341 340 339 338 338 337 335 334 333 332 330 328 325 322 320 319 319 318 318 317 317 317 316 316 314 313 311 310 309
137 136 134 133 131 129 127 125 122 121 119 118 117 118 118 117 115 113 112 113 115 119 127 131 131 129 125 121 119 116 111 103 93 85 75 65 56 46 39 33 27 20 14 9 4 360 354 350 347 345 343 342 341 340 340 340 341 340 339 339 340 339 336 334 333 332 330 329 326 324 322 321 321 321 320 319 319 319 318 317 315 314 313 312 311
139 137 136 135 132 129 127 125 123 121 120 118 118 119 119 118 115 114 111 110 113 118 124 130 131 129 127 124 121 116 108 99 89 80 68 57 46 34 27 22 15 7 3 358 354 350 346 344 342 342 342 341 341 341 341 340 341 341 340 340 340 339 337 335 333 332 331 330 328 327 326 325 324 323 322 322 322 321 320 318 317 316 315 314 312
141 139 138 136 133 130 128 126 124 122 121 119 120 121 121 120 118 116 111 106 111 121 126 128 130 129 127 125 121 115 107 97 84 71 58 44 31 20 14 9 4 359 354 349 346 343 340 339 338 339 339 339 339 340 341 340 340 340 340 340 339 338 337 336 335 333 333 332 331 331 330 329 328 327 326 326 325 323 321 320 319 318 317 316 316
142 141 138 136 133 131 128 126 124 123 122 122 122 124 124 122 121 117 111 106 112 126 129 128 129 129 129 126 121 115 105 92 74 54 36 21 11 4 359 358 356 351 346 342 339 337 336 336 336 336 336 336 336 336 336 337 337 337 337 337 338 337 337 338 337 336 336 335 335 335 334 333 332 331 330 329 328 326 324 324 323 323 322 322 322
142 140 137 135 133 131 129 126 123 123 123 125 125 126 127 126 125 121 115 110 117 130 134 132 131 131 131 129 126 118 104 80 50 25 7 357 352 349 348 349 348 345 341 338 334 332 332 332 333 334 334 334 334 333 333 332 333 334 335 336 337 337 339 340 340 339 340 340 340 339 338 338 337 336 335 334 332 331 330 330 330 329 329 328 328
142 139 137 136 135 132 130 126 124 123 124 127 129 130 130 131 130 126 120 118 123 132 137 136 135 133 131 130 128 120 99 50 11 353 345 342 341 341 342 342 340 339 338 335 332 330 329 329 330 331 333 334 334 334 332 332 332 333 335 338 340 341 342 343 343 344 345 346 345 344 343 343 342 341 339 337 336 336 336 336 336 335 334 333 331
142 140 139 139 138 135 132 129 126 125 126 129 131 133 135 135 134 131 128 125 127 135 139 139 139 138 135 132 129 110 28 348 341 337 335 336 337 337 338 338 337 337 337 335 334 333 331 330 329 329 331 334 336 337 337 336 335 336 339 342 344 346 347 347 348 349 350 351 349 349 349 347 346 345 343 342 342 342 341 342 341 340 338 336 335
143 142 142 142 141 138 136 134 131 129 130 131 133 138 140 141 140 140 137 131 132 137 140 143 146 146 144 146 140 354 339 335 335 334 334 335 336 337 337 336 337 338 338 337 337 339 338 336 334 333 334 336 338 340 342 342 340 342 344 347 349 350 351 351 352 353 354 354 354 354 353 352 350 348 348 348 347 346 345 345 344 343 342 340 339
145 145 145 145 144 142 140 137 134 133 134 134 136 140 144 146 148 148 145 138 137 140 143 147 153 160 165 191 289 321 328 329 330 331 332 333 334 336 336 337 338 338 337 339 341 343 343 343 341 340 341 341 342 345 346 347 347 348 350 352 353 354 355 355 355 356 357 357 358 358 358 356 353 352 353 353 351 349 348 347 347 346 345 344 343
149 149 149 148 147 146 144 140 137 136 136 136 137 140 145 149 152 153 152 148 144 145 148 151 158 169 186 275 306 317 324 324 324 327 328 330 333 336 338 340 340 338 338 341 343 344 346 346 345 345 345 347 347 349 351 353 354 355 356 357 357 357 358 358 358 358 359 359 360 1 0 358 357 357 356 355 353 351 351 350 349 349 348 347 347
153 154 153 152 151 151 150 146 142 140 139 138 138 139 142 148 152 153 154 154 151 150 155 162 171 184 215 283 307 316 323 322 321 323 325 329 334 338 342 342 341 341 343 344 346 347 349 349 348 348 349 350 350 352 356 358 0 1 1 360 359 359 -0 1 0 360 0 1 1 0 359 359 359 359 358 357 354 353 353 353 352 352 352 351 352
158 158 159 158 156 156 156 153 148 145 143 141 140 140 142 147 152 153 150 149 147 147 150 162 177 203 241 280 300 305 314 320 320 323 327 330 334 339 342 342 343 346 348 349 349 350 351 352 352 351 350 350 351 356 -0 2 3 4 3 1 0 0 1 2 1 360 1 2 1 359 358 358 360 360 358 357 356 356 356 357 356 356 355 356 356
164 164 165 165 163 161 161 159 154 150 149 148 147 147 147 145 148 152 152 149 145 137 132 146 167 206 268 295 308 312 316 320 322 325 329 332 335 338 341 344 347 350 350 350 351 353 355 355 354 352 352 353 356 1 3 3 3 3 2 0 1 0 360 0 359 359 1 2 1 359 358 359 360 360 359 358 358 359 360 0 360 359 359 0 1
170 171 171 171 169 167 166 165 161 159 158 158 155 155 154 148 145 148 154 155 148 133 113 112 128 290 298 313 328 328 324 328 331 331 333 335 338 341 343 347 350 351 351 352 355 357 357 356 354 353 356 359 2 3 3 3 3 2 1 360 359 358 356 357 357 357 360 1 1 360 360 360 0 0 -0 360 360 1 3 3 3 3 3 4 5
175 176 175 174 174 173 173 172 170 169 169 169 167 166 164 159 155 154 159 161 155 145 120 91 47 344 317 324 336 336 336 341 340 339 343 344 345 349 350 351 352 352 354 355 357 359 358 357 355 354 356 1 3 3 2 2 2 1 0 359 357 356 355 354 355 357 359 1 1 1 0 1 1 1 2 2 2 4 6 7 6 6 6 8 9
179 179 178 178 179 179 179 180 180 180 180 181 182 183 183 180 176 172 171 174 177 178 170 111 20 8 355 347 342 338 341 343 341 342 346 347 348 351 353 353 353 354 356 358 358 359 359 357 357 357 358 1 2 1 1 1 3 2 0 359 357 355 355 354 355 356 358 0 1 1 1 1 2 3 4 4 5 6 9 9 9 9 9 10 12
181 181 181 181 182 183 184 186 187 189 192 194 197 200 201 198 196 195 193 196 204 207 214 255 311 352 360 350 336 332 334 337 338 339 342 345 347 348 351 354 354 355 357 359 358 358 359 358 359 360 360 1 2 1 359 360 1 1 360 358 356 355 355 354 354 356 357 359 1 1 1 2 4 5 5 5 6 8 10 11 11 11 12 13 15
186 186 186 185 186 187 189 191 194 197 201 204 207 210 211 210 212 214 213 215 220 227 245 265 279 307 323 323 323 323 325 331 337 340 341 344 344 345 348 351 352 354 356 357 357 357 358 358 359 360 360 360 360 359 358 357 357 358 358 357 355 355 354 353 353 354 356 358 360 360 0 2 5 6 6 6 7 8 11 13 13 13 14 15 17
191 191 192 192 192 192 195 198 200 203 207 209 211 212 213 216 218 219 220 225 232 240 254 271 281 293 302 306 312 318 322 327 333 338 341 340 341 345 346 346 349 353 354 354 355 356 356 357 358 358 359 358 357 357 356 355 355 355 356 356 355 354 354 353 352 352 354 356 358 359 0 2 5 6 6 6 7 8 11 14 14 14 15 17 19
196 196 197 198 199 199 202 205 206 208 209 210 211 213 215 216 217 220 225 233 242 249 260 274 286 291 296 302 309 316 321 324 325 330 337 338 338 341 343 344 346 349 351 351 352 353 354 355 356 357 358 358 357 356 355 354 353 353 354 354 353 353 354 352 352 352 352 354 356 358 359 2 5 6 6 7 6 7 9 12 13 15 15 17 19
199 200 201 203 204 205 206 208 209 209 209 210 213 216 217 217 220 226 233 242 249 256 265 274 283 289 294 298 304 312 318 320 322 326 332 332 331 333 338 341 341 342 346 348 348 350 352 353 355 356 358 360 359 356 354 353 352 352 351 350 351 352 352 351 351 351 351 352 354 356 358 360 3 5 5 7 7 6 7 10 12 14 15 16 19
202 203 204 206 207 208 209 210 211 211 212 213 216 219 221 223 227 234 241 248 255 263 268 271 277 284 290 292 295 303 309 314 320 324 326 326 328 330 334 338 336 337 341 343 344 347 351 353 354 356 358 358 357 355 353 352 352 352 350 349 349 350 350 349 349 349 349 351 353 354 356 357 0 2 3 6 7 6 7 8 10 13 15 15 17
205 206 207 207 207 209 210 212 213 213 214 216 220 223 225 228 232 238 244 249 258 267 268 268 274 282 288 290 293 297 302 308 314 317 320 323 325 327 331 336 336 335 337 340 342 345 350 353 353 354 355 355 355 354 353 352 352 352 350 350 349 350 349 348 346 345 346 349 351 353 354 355 358 360 1 3 5 6 6 7 8 10 13 15 16
208 209 209 208 208 210 212 213 214 215 216 220 224 225 227 230 234 240 246 251 258 265 267 270 275 281 286 289 291 294 298 302 306 310 314 317 320 324 328 332 332 332 335 339 342 344 348 352 353 353 353 353 352 352 352 351 351 350 349 349 349 349 349 347 345 343 344 346 349 352 353 353 356 357 358 0 3 4 5 6 7 8 11 14 16
209 210 211 210 210 212 214 215 216 217 220 224 227 227 229 232 237 243 248 253 257 262 267 270 273 278 284 288 291 294 295 296 298 302 307 311 315 321 325 327 328 330 334 338 342 343 344 348 351 351 351 350 350 350 349 348 348 348 346 346 347 348 348 347 345 344 344 346 349 351 352 353 355 356 357 359 1 2 2 4 5 6 7 10 13
209 211 212 212 213 215 216 218 219 220 222 226 229 231 232 235 240 245 250 254 257 261 266 268 271 276 281 286 288 289 291 294 296 299 303 308 313 318 322 324 327 330 334 337 340 341 342 343 345 347 348 347 347 347 346 345 345 345 344 344 345 345 346 346 346 346 346 346 348 349 350 352 354 355 357 359 1 1 1 1 2 3 4 6 10
210 212 213 213 215 216 217 219 221 222 224 226 230 232 235 239 242 247 252 256 259 262 265 267 270 274 277 280 283 286 290 294 297 298 302 306 311 315 318 322 325 328 330 333 335 337 338 339 339 340 342 343 343 343 343 343 343 342 342 343 343 343 345 345 345 346 346 345 345 346 347 349 351 354 356 358 360 1 0 359 358 360 0 2 5
212 213 213 213 214 215 217 219 220 222 225 226 229 232 235 239 242 247 252 256 259 262 263 266 269 271 273 275 279 284 288 292 295 298 301 306 310 312 315 318 320 321 323 327 328 330 332 334 334 334 336 338 339 340 341 341 341 341 341 341 342 343 344 344 344 344 343 342 341 342 344 346 348 350 353 355 357 359 359 357 356 356 357 358 360
214 214 213 213 213 214 217 219 220 222 225 227 229 231 234 238 242 246 250 253 256 259 262 265 268 269 271 274 279 282 285 289 293 296 299 303 306 308 309 312 313 314 317 319 321 324 327 329 330 330 331 334 336 337 338 338 338 339 338 338 340 341 341 341 342 341 339 337 337 337 339 342 344 346 348 350 352 354 355 354 353 353 353 352 353
216 215 214 214 215 216 218 220 221 223 226 227 229 231 235 239 242 245 248 251 255 259 263 265 266 267 271 275 278 281 285 288 291 293 297 300 302 304 305 307 309 310 312 312 314 318 322 324 326 327 328 330 332 333 334 334 334 336 336 336 337 337 337 338 339 338 336 334 333 334 335 337 339 341 344 345 346 348 349 349 347 348 348 347 347
218 216 216 217 217 218 219 220 222 223 226 228 230 233 237 240 244 246 248 252 256 260 263 264 265 267 270 274 278 281 285 286 289 293 296 298 300 301 302 304 306 307 308 309 310 314 318 319 321 323 325 327 327 329 330 330 331 332 333 332 332 333 333 333 333 333 332 331 329 329 330 331 333 335 338 341 342 343 344 344 342 341 341 341 340
219 218 218 219 220 221 220 221 223 226 228 230 232 235 239 242 245 248 251 255 258 261 263 265 265 266 268 270 274 278 282 283 285 290 293 295 297 299 299 301 303 305 307 307 309 312 315 317 319 320 322 324 325 326 327 327 328 329 329 328 328 328 328 327 326 326 327 325 323 323 323 324 326 328 331 334 336 337 338 339 339 336 335 334 333
221 221 221 222 223 224 224 225 227 229 231 233 235 238 241 244 247 250 253 256 260 262 263 264 264 265 266 267 270 274 277 279 282 285 287 290 293 295 297 300 302 303 305 306 308 311 314 316 318 319 320 322 323 323 324 324 324 325 325 325 324 324 323 323 321 320 322 321 318 317 316 317 319 321 324 326 328 330 331 333 333 332 330 329 327
223 223 223 224 226 227 228 230 231 232 234 236 238 241 244 246 250 252 255 258 261 263 264 265 265 265 265 266 267 271 275 277 280 283 285 287 290 293 295 298 300 302 304 306 308 310 313 315 317 318 319 321 321 321 322 321 321 322 322 322 321 321 320 320 319 317 319 319 316 314 313 313 314 316 318 320 321 323 324 326 327 327 326 325 323
225 225 226 227 229 229 231 233 234 236 238 240 242 245 247 249 253 256 258 260 263 265 266 266 265 266 268 272 275 278 280 280 281 282 284 285 287 291 293 296 299 301 303 305 307 309 311 313 315 317 318 319 320 320 320 320 321 322 322 321 321 320 319 319 318 316 316 317 315 314 312 311 311 312 314 315 316 317 318 320 322 323 322 321 320
227 227 228 229 230 231 233 235 236 238 240 242 246 249 250 253 256 258 260 262 264 266 267 267 268 271 275 278 280 282 283 284 283 283 283 284 286 289 292 295 297 300 302 304 306 309 310 312 314 316 318 319 319 319 320 320 321 321 322 322 322 321 320 320 319 317 317 316 315 314 314 312 311 311 311 312 313 313 314 315 316 318 319 318 316
228 228 229 231 232 233 235 236 238 240 241 244 248 251 253 256 260 261 261 263 265 267 269 269 271 274 275 276 277 277 279 282 283 282 281 282 284 287 290 293 295 298 301 303 305 307 310 312 314 315 317 318 319 319 320 321 321 321 322 323 323 323 322 322 322 321 321 320 319 317 316 314 313 312 311 310 310 311 311 311 312 313 314 314 313
228 229 230 232 234 235 237 238 239 240 243 247 250 252 256 260 262 263 263 264 265 267 269 270 272 273 273 274 275 274 276 278 279 280 280 281 282 285 288 290 293 296 299 301 303 306 309 311 312 313 315 316 317 318 319 320 321 321 322 323 324 324 324 324 323 323 323 322 321 319 317 316 314 312 311 310 309 309 309 310 310 310 310 309 310
229 230 231 232 235 237 238 238 238 241 246 249 253 257 261 262 263 265 264 264 266 267 268 270 273 274 273 274 275 275 275 276 276 276 278 280 281 283 286 289 292 295 298 300 303 306 309 310 311 313 314 315 316 317 319 320 321 321 321 322 323 324 325 325 325 325 325 324 323 320 319 319 317 316 314 312 311 310 309 309 310 309 308 305 305
231 232 232 234 236 237 239 239 240 243 247 251 254 259 262 262 264 265 264 264 265 267 269 271 274 275 274 275 275 274 273 274 274 275 276 279 280 281 284 287 291 294 297 300 303 305 307 309 310 312 313 314 316 318 319 320 321 321 321 321 321 323 324 324 324 326 326 325 324 323 323 323 322 322 320 318 317 315 312 311 311 310 308 304 302
233 233 234 236 237 238 239 240 242 244 248 251 254 256 258 260 263 263 263 264 266 268 270 272 273 275 275 276 275 273 272 273 274 274 275 277 279 281 284 287 290 293 295 298 301 303 305 307 309 311 312 314 316 318 319 320 321 321 321 321 321 321 322 322 323 324 326 326 324 323 324 325 324 323 322 321 320 318 315 313 312 310 309 305 302
234 235 236 237 238 238 239 240 243 245 248 251 254 254 256 259 261 262 263 265 266 268 270 272 273 275 276 276 276 274 273 273 275 275 275 275 277 280 285 288 291 293 293 295 298 301 304 306 309 311 313 314 316 318 319 319 320 320 320 320 319 320 322 323 322 323 326 327 325 323 324 326 325 324 324 323 322 321 319 316 313 311 309 307 303
235 236 237 237 238 239 239 240 242 244 247 251 254 254 257 259 260 262 264 264 265 268 271 272 274 276 276 276 276 276 275 275 276 277 276 275 275 279 284 288 292 293 293 294 297 300 304 307 310 313 314 315 316 318 319 319 318 319 319 318 318 319 321 322 321 323 325 326 324 323 324 325 325 325 325 325 324 323 321 320 317 314 311 309 306
236 237 238 238 238 239 240 240 242 243 246 250 253 254 256 258 259 261 263 264 265 267 271 273 274 276 276 276 277 278 278 278 278 278 277 276 277 280 283 286 290 292 293 294 297 301 303 306 310 314 315 314 315 317 319 319 318 319 319 318 318 319 319 321 322 323 325 326 323 322 323 324 324 323 324 325 325 323 322 322 321 318 314 312 310
237 238 239 239 239 239 240 240 241 243 246 250 253 253 254 256 258 260 262 264 265 268 271 274 275 276 276 276 277 278 279 279 279 278 276 276 279 281 280 282 287 289 290 293 297 301 303 305 309 312 312 312 313 315 317 318 319 319 319 319 318 317 317 319 322 324 325 325 323 320 322 324 323 321 321 323 324 323 322 322 321 319 316 314 312
239 240 240 239 239 240 240 241 242 244 247 250 252 252 253 255 257 259 261 263 265 268 271 272 274 275 276 277 277 278 279 279 277 276 275 276 279 278 277 279 282 283 287 293 297 300 302 304 306 307 307 309 311 311 313 316 318 318 318 319 318 317 315 316 319 322 325 325 323 320 320 321 320 318 316 318 321 322 321 321 319 317 314 312 311
239 239 239 239 239 240 241 242 242 244 247 250 252 253 254 255 256 259 261 263 265 268 270 272 274 276 277 278 278 278 278 276 275 274 274 275 276 274 273 275 277 280 287 294 299 302 304 306 306 304 303 305 309 311 313 316 316 315 314 315 316 317 315 313 314 317 321 322 322 319 317 318 319 317 314 314 317 320 320 320 319 316 314 312 310
238 238 238 238 239 241 242 242 243 245 247 250 252 253 254 255 257 260 262 264 266 268 270 273 274 276 277 278 278 278 276 275 274 274 275 275 273 270 269 272 277 281 285 290 296 301 304 305 306 305 302 302 307 311 314 315 315 313 311 312 314 314 314 313 313 313 315 319 320 318 316 316 317 316 313 311 313 316 318 318 319 317 314 312 310
237 238 238 239 239 241 242 243 244 246 248 250 252 254 255 256 258 260 262 264 266 268 270 272 274 275 276 276 276 276 275 274 274 274 274 273 270 269 270 273 276 280 282 286 291 295 298 299 301 302 302 303 306 309 311 313 314 314 313 314 314 314 313 313 313 311 312 316 320 318 315 314 315 316 315 312 310 312 314 314 315 315 313 311 309
236 237 238 239 240 241 243 244 245 246 248 250 253 254 255 257 259 260 261 263 265 267 269 272 274 276 276 275 274 274 273 272 273 274 274 270 268 270 272 273 275 279 282 285 288 291 293 295 298 299 300 303 306 307 309 312 315 316 316 314 313 313 312 312 312 311 310 313 317 317 314 313 315 315 315 313 310 310 312 311 311 312 311 310 309